RYR84AL GMMX-LIPH

Flight info

Callsign RYR84AL
Flight time N/A
Altitude 36000
Route OBOGA UG850 BERUM DCT GONZA N860 RESTU DCT ALT DCT SUMMO DCT MITOS DCT BRUNO DCT RUXET DCT IZA DCT TUKRO DCT ASMOT DCT PTC DCT MHN DCT MORSS DCT BAVON DCT ORKUM DCT ELSAG DCT ALG DCT OLBEK DCT IBROS DCT MAREL DCT TIPNI DCT BOA DCT LUMAV DCT ROVIG
Aircraft B738/M-SDE3FGILRWY/SB1

Departure

Time 2026-04-28 10:10
Airport Marrakesh Menara Airport (GMMX)

Arrival

Time N/A
Airport Treviso Airport (LIPH)
Time Latitude Longitude Altitude Speed Heading
2026-04-28 09:38 31.60294 -8.02404 1548 ft 0 kts 186°
2026-04-28 10:02 31.60300 -8.02404 1541 ft 4 kts 186°
2026-04-28 10:02 31.60327 -8.02400 1538 ft 4 kts 188°
2026-04-28 10:02 31.60354 -8.02395 1543 ft 4 kts 191°
2026-04-28 10:02 31.60380 -8.02387 1537 ft 4 kts 201°
2026-04-28 10:03 31.60402 -8.02373 1540 ft 4 kts 237°
2026-04-28 10:03 31.60406 -8.02360 1548 ft 0 kts 276°
2026-04-28 10:05 31.60406 -8.02361 1548 ft 1 kts 276°
2026-04-28 10:05 31.60408 -8.02380 1542 ft 4 kts 274°
2026-04-28 10:06 31.60410 -8.02416 1548 ft 4 kts 269°
2026-04-28 10:06 31.60387 -8.02426 1544 ft 4 kts 141°
2026-04-28 10:06 31.60393 -8.02392 1542 ft 4 kts 66°
2026-04-28 10:06 31.60404 -8.02358 1548 ft 4 kts 78°
2026-04-28 10:07 31.60402 -8.02313 1541 ft 7 kts 95°
2026-04-28 10:07 31.60396 -8.02247 1544 ft 9 kts 97°
2026-04-28 10:07 31.60387 -8.02163 1548 ft 11 kts 96°
2026-04-28 10:07 31.60381 -8.02067 1541 ft 12 kts 76°
2026-04-28 10:08 31.60445 -8.02035 1549 ft 6 kts
2026-04-28 10:08 31.60487 -8.02029 1549 ft 6 kts
2026-04-28 10:08 31.60515 -8.02026 1549 ft 6 kts
2026-04-28 10:08 31.60548 -8.02051 1539 ft 6 kts 297°
2026-04-28 10:09 31.60560 -8.02161 1549 ft 27 kts 276°
2026-04-28 10:09 31.60585 -8.02457 1539 ft 83 kts 276°
2026-04-28 10:09 31.60671 -8.03435 1539 ft 156 kts 275°
2026-04-28 10:09 31.60790 -8.04862 1960 ft 192 kts 274°
2026-04-28 10:10 31.60942 -8.06547 2598 ft 211 kts 276°
2026-04-28 10:10 31.61108 -8.08199 3833 ft 196 kts 276°
2026-04-28 10:10 31.61251 -8.09731 5009 ft 183 kts 275°
2026-04-28 10:10 31.61383 -8.11261 5612 ft 199 kts 275°
2026-04-28 10:11 31.61526 -8.12978 5833 ft 223 kts 275°
2026-04-28 10:11 31.61683 -8.14905 6124 ft 247 kts 275°
2026-04-28 10:11 31.62133 -8.16836 6459 ft 252 kts 299°
2026-04-28 10:11 31.63307 -8.18348 6497 ft 253 kts 326°
2026-04-28 10:12 31.64959 -8.19098 6494 ft 258 kts 353°
2026-04-28 10:12 31.66729 -8.18900 6493 ft 258 kts 20°
2026-04-28 10:12 31.68239 -8.17761 6757 ft 262 kts 49°
2026-04-28 10:12 31.69047 -8.15861 7517 ft 261 kts 76°
2026-04-28 10:13 31.69405 -8.13800 8347 ft 261 kts 80°
2026-04-28 10:13 31.69718 -8.11693 9132 ft 262 kts 81°
2026-04-28 10:13 31.70015 -8.09573 9900 ft 265 kts 81°
2026-04-28 10:13 31.70315 -8.07418 10555 ft 270 kts 81°
2026-04-28 10:14 31.70621 -8.05225 11183 ft 275 kts 81°
2026-04-28 10:14 31.70932 -8.02989 11833 ft 280 kts 81°
2026-04-28 10:14 31.71246 -8.00740 12478 ft 284 kts 81°
2026-04-28 10:14 31.71699 -7.98462 13119 ft 290 kts 66°
2026-04-28 10:15 31.72831 -7.96450 13494 ft 306 kts 50°
2026-04-28 10:15 31.74260 -7.94481 13663 ft 328 kts 49°
2026-04-28 10:15 31.75814 -7.92390 13838 ft 349 kts 49°
2026-04-28 10:15 31.77452 -7.90174 14088 ft 365 kts 49°
2026-04-28 10:16 31.79128 -7.87880 14614 ft 372 kts 49°
2026-04-28 10:16 31.80787 -7.85588 15298 ft 373 kts 50°
2026-04-28 10:16 31.82474 -7.83248 15941 ft 376 kts 50°
2026-04-28 10:16 31.84184 -7.80877 16531 ft 381 kts 49°
2026-04-28 10:17 31.85952 -7.78532 17139 ft 385 kts 47°
2026-04-28 10:17 31.87768 -7.76197 17756 ft 388 kts 47°
2026-04-28 10:17 31.89610 -7.73845 18346 ft 392 kts 47°
2026-04-28 10:17 31.91449 -7.71492 18863 ft 396 kts 47°
2026-04-28 10:18 31.93319 -7.69088 19389 ft 399 kts 47°
2026-04-28 10:18 31.95199 -7.66660 19887 ft 403 kts 47°
2026-04-28 10:18 31.97070 -7.64238 20393 ft 406 kts 47°
2026-04-28 10:18 31.98984 -7.61756 20891 ft 410 kts 47°
2026-04-28 10:19 32.00912 -7.59252 21406 ft 413 kts 47°
2026-04-28 10:19 32.02848 -7.56734 21891 ft 416 kts 47°
2026-04-28 10:19 32.04801 -7.54196 22385 ft 419 kts 47°
2026-04-28 10:19 32.06772 -7.51632 22877 ft 422 kts 47°
2026-04-28 10:20 32.08752 -7.49055 23357 ft 426 kts 47°
2026-04-28 10:20 32.10746 -7.46453 23764 ft 429 kts 47°
2026-04-28 10:20 32.12732 -7.43859 24169 ft 431 kts 48°
2026-04-28 10:20 32.14755 -7.41213 24583 ft 433 kts 48°
2026-04-28 10:21 32.16786 -7.38553 24982 ft 436 kts 48°
2026-04-28 10:21 32.18821 -7.35889 25360 ft 438 kts 48°
2026-04-28 10:21 32.20847 -7.33232 25726 ft 441 kts 48°
2026-04-28 10:21 32.22915 -7.30521 26089 ft 443 kts 48°
2026-04-28 10:22 32.24989 -7.27800 26461 ft 446 kts 48°
2026-04-28 10:22 32.27055 -7.25088 26823 ft 448 kts 48°
2026-04-28 10:22 32.29153 -7.22334 27161 ft 451 kts 48°
2026-04-28 10:22 32.31243 -7.19591 27493 ft 453 kts 48°
2026-04-28 10:23 32.33375 -7.16789 27840 ft 456 kts 49°
2026-04-28 10:23 32.35478 -7.14023 28176 ft 458 kts 49°
2026-04-28 10:23 32.37619 -7.11205 28499 ft 460 kts 49°
2026-04-28 10:23 32.39773 -7.08368 28806 ft 462 kts 49°
2026-04-28 10:24 32.41908 -7.05552 29108 ft 465 kts 49°
2026-04-28 10:24 32.44073 -7.02695 29391 ft 467 kts 49°
2026-04-28 10:24 32.46262 -6.99804 29693 ft 470 kts 49°
2026-04-28 10:24 32.48426 -6.96944 29969 ft 472 kts 49°
2026-04-28 10:25 32.50642 -6.94012 30210 ft 474 kts 49°
2026-04-28 10:25 32.52839 -6.91104 30461 ft 476 kts 49°
2026-04-28 10:25 32.55026 -6.88208 30777 ft 475 kts 49°
2026-04-28 10:25 32.57240 -6.85272 31137 ft 474 kts 49°
2026-04-28 10:26 32.59421 -6.82378 31467 ft 473 kts 49°
2026-04-28 10:26 32.61632 -6.79442 31759 ft 473 kts 49°
2026-04-28 10:26 32.63811 -6.76546 32025 ft 474 kts 49°
2026-04-28 10:26 32.66022 -6.73605 32337 ft 473 kts 49°
2026-04-28 10:27 32.68188 -6.70721 32680 ft 472 kts 49°
2026-04-28 10:27 32.70364 -6.67822 32989 ft 471 kts 49°
2026-04-28 10:27 32.72555 -6.64901 33260 ft 472 kts 49°
2026-04-28 10:27 32.74744 -6.61979 33529 ft 472 kts 49°
2026-04-28 10:28 32.76912 -6.59085 33823 ft 471 kts 49°
2026-04-28 10:28 32.79098 -6.56163 34089 ft 470 kts 49°
2026-04-28 10:28 32.81263 -6.53267 34292 ft 471 kts 49°
2026-04-28 10:29 32.85608 -6.47446 34721 ft 471 kts 49°
2026-04-28 10:29 32.87765 -6.44554 34942 ft 471 kts 49°
2026-04-28 10:29 32.89944 -6.41630 35163 ft 471 kts 49°
2026-04-28 10:29 32.92131 -6.38694 35387 ft 470 kts 49°
2026-04-28 10:30 32.94283 -6.35812 35584 ft 470 kts 49°
2026-04-28 10:30 32.96469 -6.32890 35768 ft 471 kts 49°
2026-04-28 10:30 32.98656 -6.29967 35918 ft 471 kts 49°
2026-04-28 10:31 33.03009 -6.24142 35930 ft 471 kts 49°
2026-04-28 10:31 33.07347 -6.18322 35929 ft 470 kts 49°
2026-04-28 10:32 33.11677 -6.12503 35933 ft 468 kts 49°
2026-04-28 10:32 33.15991 -6.06694 35925 ft 468 kts 49°
2026-04-28 10:33 33.20286 -6.00902 35937 ft 467 kts 49°
2026-04-28 10:33 33.24581 -5.95101 35929 ft 466 kts 49°
2026-04-28 10:34 33.28883 -5.89281 35935 ft 466 kts 49°
2026-04-28 10:34 33.33177 -5.83464 35942 ft 465 kts 49°
2026-04-28 10:35 33.37448 -5.77647 35941 ft 466 kts 49°
2026-04-28 10:35 33.41697 -5.71839 35935 ft 466 kts 49°
2026-04-28 10:36 33.45974 -5.65983 35945 ft 467 kts 49°
2026-04-28 10:36 33.50261 -5.60106 35951 ft 467 kts 49°
2026-04-28 10:37 33.54543 -5.54226 35962 ft 468 kts 49°
2026-04-28 10:37 33.58798 -5.48373 36079 ft 465 kts 47°
2026-04-28 10:38 33.63011 -5.42569 35957 ft 456 kts 47°
2026-04-28 10:38 33.67158 -5.36849 35966 ft 455 kts 47°
2026-04-28 10:39 33.71310 -5.31112 35968 ft 455 kts 47°
2026-04-28 10:39 33.75451 -5.25380 35970 ft 455 kts 47°
2026-04-28 10:40 33.79600 -5.19628 35976 ft 455 kts 47°
2026-04-28 10:40 33.83741 -5.13877 35970 ft 456 kts 47°
2026-04-28 10:41 33.87892 -5.08103 35966 ft 457 kts 47°
2026-04-28 10:41 33.92079 -5.02299 35969 ft 457 kts 45°
2026-04-28 10:42 33.96884 -4.97391 35977 ft 454 kts 35°
2026-04-28 10:42 34.01974 -4.92865 35973 ft 455 kts 34°
2026-04-28 10:43 34.07050 -4.88313 35968 ft 455 kts 35°
2026-04-28 10:43 34.12102 -4.83711 35963 ft 455 kts 35°
2026-04-28 10:44 34.17119 -4.79112 35965 ft 454 kts 35°
2026-04-28 10:44 34.22141 -4.74503 35951 ft 452 kts 35°
2026-04-28 10:45 34.27125 -4.69924 35955 ft 450 kts 35°
2026-04-28 10:45 34.32099 -4.65348 35948 ft 448 kts 36°
2026-04-28 10:46 34.37044 -4.60791 35951 ft 446 kts 36°
2026-04-28 10:46 34.41984 -4.56223 35948 ft 444 kts 36°
2026-04-28 10:47 34.46844 -4.51693 35954 ft 443 kts 36°
2026-04-28 10:47 34.51746 -4.47112 35951 ft 442 kts 36°
2026-04-28 10:48 34.56605 -4.42567 35956 ft 441 kts 36°
2026-04-28 10:48 34.61454 -4.38027 35952 ft 441 kts 36°
2026-04-28 10:49 34.66304 -4.33480 35957 ft 440 kts 36°
2026-04-28 10:49 34.71157 -4.28922 35955 ft 440 kts 36°
2026-04-28 10:50 34.76001 -4.24366 35952 ft 441 kts 36°
2026-04-28 10:50 34.80838 -4.19809 35957 ft 441 kts 36°
2026-04-28 10:51 34.85684 -4.15238 35947 ft 441 kts 36°
2026-04-28 10:51 34.90549 -4.10640 35946 ft 442 kts 36°
2026-04-28 10:52 34.95397 -4.06053 35934 ft 442 kts 37°
2026-04-28 10:52 35.00257 -4.01446 35931 ft 443 kts 37°
2026-04-28 10:53 35.05110 -3.96839 35918 ft 443 kts 37°
2026-04-28 10:53 35.09972 -3.92215 35914 ft 443 kts 37°
2026-04-28 10:54 35.14835 -3.87584 35914 ft 443 kts 37°
2026-04-28 10:54 35.19702 -3.82949 35913 ft 443 kts 36°
2026-04-28 10:55 35.24604 -3.78397 35914 ft 442 kts 36°
2026-04-28 10:55 35.29515 -3.73876 35918 ft 441 kts 36°
2026-04-28 10:56 35.34410 -3.69349 35926 ft 441 kts 36°
2026-04-28 10:56 35.39279 -3.64828 35930 ft 440 kts 36°
2026-04-28 10:57 35.44153 -3.60294 35944 ft 439 kts 36°
2026-04-28 10:57 35.49016 -3.55761 35950 ft 438 kts 36°
2026-04-28 10:58 35.53861 -3.51238 35950 ft 438 kts 36°
2026-04-28 10:58 35.57913 -3.47450 35954 ft 438 kts 36°
2026-04-28 10:59 35.62732 -3.42938 35953 ft 438 kts 36°
2026-04-28 10:59 35.67594 -3.38379 35957 ft 437 kts 36°
2026-04-28 11:00 35.72420 -3.33847 35957 ft 438 kts 37°
2026-04-28 11:00 35.77248 -3.29305 35963 ft 438 kts 37°
2026-04-28 11:01 35.82081 -3.24753 35966 ft 438 kts 37°
2026-04-28 11:01 35.86903 -3.20168 35968 ft 438 kts 37°
2026-04-28 11:02 35.91709 -3.15540 35970 ft 439 kts 38°
2026-04-28 11:02 35.96538 -3.10882 35970 ft 439 kts 38°
2026-04-28 11:03 36.01339 -3.06252 35974 ft 440 kts 38°
2026-04-28 11:03 36.06168 -3.01589 35968 ft 440 kts 38°
2026-04-28 11:04 36.11012 -2.96903 35974 ft 440 kts 38°
2026-04-28 11:04 36.15815 -2.92249 35977 ft 441 kts 38°
2026-04-28 11:05 36.20652 -2.87556 35972 ft 441 kts 38°
2026-04-28 11:05 36.25486 -2.82923 35970 ft 441 kts 38°
2026-04-28 11:06 36.30356 -2.78280 35971 ft 440 kts 38°
2026-04-28 11:06 36.35215 -2.73631 35967 ft 440 kts 38°
2026-04-28 11:07 36.40028 -2.69011 35965 ft 439 kts 38°
2026-04-28 11:07 36.44863 -2.64364 35964 ft 439 kts 38°
2026-04-28 11:08 36.49667 -2.59690 35963 ft 438 kts 39°
2026-04-28 11:08 36.54404 -2.54947 35964 ft 437 kts 39°
2026-04-28 11:09 36.59134 -2.50195 35964 ft 437 kts 39°
2026-04-28 11:09 36.63870 -2.45445 35962 ft 437 kts 40°
2026-04-28 11:10 36.68570 -2.40730 35963 ft 437 kts 40°
2026-04-28 11:10 36.73331 -2.35947 35964 ft 437 kts 40°
2026-04-28 11:11 36.78060 -2.31186 35968 ft 437 kts 40°
2026-04-28 11:11 36.82802 -2.26432 35972 ft 438 kts 37°
2026-04-28 11:12 36.88063 -2.22591 35974 ft 440 kts 28°
2026-04-28 11:12 36.93532 -2.19068 35960 ft 442 kts 28°
2026-04-28 11:13 36.98952 -2.15530 35969 ft 442 kts 28°
2026-04-28 11:13 37.04395 -2.11923 35968 ft 443 kts 29°
2026-04-28 11:14 37.09852 -2.08287 35972 ft 443 kts 29°
2026-04-28 11:14 37.15287 -2.04660 35974 ft 444 kts 29°
2026-04-28 11:15 37.20751 -2.01010 35971 ft 444 kts 29°
2026-04-28 11:15 37.26215 -1.97372 35977 ft 444 kts 28°
2026-04-28 11:16 37.31689 -1.93872 35977 ft 445 kts 28°
2026-04-28 11:16 37.37245 -1.90349 35984 ft 445 kts 28°
2026-04-28 11:17 37.42752 -1.86835 35985 ft 445 kts 28°
2026-04-28 11:17 37.48261 -1.83302 35981 ft 445 kts 28°
2026-04-28 11:18 37.53770 -1.79760 35989 ft 445 kts 28°
2026-04-28 11:18 37.59273 -1.76217 35988 ft 445 kts 28°
2026-04-28 11:19 37.64802 -1.72650 35994 ft 446 kts 28°
2026-04-28 11:19 37.70325 -1.69082 35988 ft 446 kts 28°
2026-04-28 11:20 37.75848 -1.65508 35995 ft 446 kts 28°
2026-04-28 11:20 37.81357 -1.61937 35993 ft 445 kts 28°
2026-04-28 11:21 37.86859 -1.58356 35999 ft 445 kts 31°
2026-04-28 11:21 37.89401 -1.56115 35992 ft 442 kts 44°
2026-04-28 11:21 37.91479 -1.53309 36001 ft 440 kts 54°
2026-04-28 11:21 37.93085 -1.50018 35998 ft 437 kts 65°
2026-04-28 11:22 37.94385 -1.46517 36006 ft 437 kts 66°
2026-04-28 11:22 37.96888 -1.39507 35999 ft 437 kts 66°
2026-04-28 11:23 37.99411 -1.32497 35997 ft 438 kts 66°
2026-04-28 11:23 38.01959 -1.25513 35997 ft 439 kts 66°